Starlink 30491

decayed
NORAD ID: 57916 Int'l Des: 2023-147 Owner: SPXS Country: US Constellation: starlink
LEOCIRCULAR
グループ

Starlink 30491について

説明を読み込み中...

高度履歴

Altitude vs Time

uPlot chart will show altitude changes over time

軌道要素

1 57916U 23147D 24218.07987054 .21897844 89299-5 47722-2 0 9991
2 57916 42.9830 190.1881 0010531 181.6026 178.4831 16.29365899 49786
Epoch: Aug 5, 2024 • Age: 11898 hours

現在のステータス

Position data unavailable
打ち上げ日 Sep 24, 2023
運用期間 2.2 years
落下予定日 Aug 5, 2024
タイプ internet

技術仕様

分類 Payload
質量 730.00 kg
乾燥質量 700.00 kg
総質量 730.00 kg
長さ 0.30 m
直径 4.10 m
スパン 29.00 m
形状 Box + pan
製造者 SPXS
バスタイプ Starlink V2M
フェーズステータス Unknown Transfer Status
所有者/国 SPXS/US

大規模コンステレーション

Loading constellations...